STARLINK-3589, 51997

Orbit data source: Space-Track

STARLINK-3589, 51997 is a payload satellite owned by SpaceX/Seattle (US) in LEO that was launched on Wed, 09 Mar 2022 UTC via an FALCON 9 launch vehicle from the Air Force Eastern Test Range (AFETR). Payload-class satellites include a variety of spacecraft equipped with specific instruments for various scientific and technological missions. These include communications satellites like Starlink; space stations such as the ISS; scientific satellites like the Hubble; Earth observation satellites from companies like Planet Labs, Umbra, and HawkEye 360; GPS; miniature CubeSats for education and research; and military/defense satellites.

Loading next visibility...
Identifier
51997, 2022-025AT
Orbit
LEO
Country
Flag of USUS
Related business
Manufacturer
SpaceX/Seattle
Mission
Operational Commercial Communications
Bus & Motor
STARLINK, Unknown motor
Mass
297 kg wet, ~275 kg dry
Launch date (UTC)
2022-03-09 (4 years ago)
Launch vehicle
FALCON 9
Launch site
Air Force Eastern Test Range (AFETR)
Object type
Payload
Rocket body
Debris
Shape & HBR
Box + 1 Pan, 10.1 m
Radar Cross Section
13.562 m², Large (>1 m²)

Expand to show TLE details & history
Last TLE update: 3 days ago

TLE from 3 days ago
0 STARLINK-3589
1 51997U 22025AT  26170.61584597  .00000030  00000-0  19974-4 0  9990
2 51997  53.1597 281.4444 0000942  94.8344 265.2755 15.08825504236299
Epoch: 2026-06-19T14:46Z
TLE epoch observation values (Epoch: 2026-06-19T14:46:49.091Z)
Latitude
-0.00004°
Longitude
151.89756°
Altitude
540.733 km
Speed
7.593 km/s
True Right ascension
18h 45m 46s
True Declination
0° 00' 00"
Sunlit
Object was in full shadow at epoch
Visualization orbit readout
Latitude
Unknown
Longitude
Unknown
Altitude
Unknown
Speed
Unknown
Apparent Right ascension
Unknown
Apparent Declination
Unknown
Sunlit
N/A
Visualization observer readout
Local Sidereal Time
23:18:52
Azimuth
Unknown
Elevation
Unknown
Doppler factor
Unknown
Orbital elements
Apogee altitude
540.694 km
Perigee altitude
539.39 km
Semi-major axis
6,918.179 km
Eccentricity
0.00009
Inclination
53.1597°
RAAN
281.4444°
Arg. of periapsis
94.8344°
True anomaly
265.26474°
Mean anomaly
265.2755°
Eccentric anomaly
265.27012°
Mean motion
3.77186 °/min
Orbital period
95.44 mins
BSTAR
0.000019974
Loading maneuver chart data...
Computing Atmospheric mass density...
Loading historical data...
Loading historical data...
Loading historical data...
Loading historical data...
Loading historical data...
Loading historical data...
Loading historical data...

Documentation

Showing up to 5 results
|